{"data":{"norad_id":65037,"epoch":"2026-09-20T22:42:24.532128Z","epoch_age_seconds":81648,"freshness":"FRESH","line1":"1 65037U 25161Y   26263.94611727  .00015353  00000+0  46445-3 0  9994","line2":"2 65037  53.1562 105.8957 0001549  76.9217 283.1958 15.34410018 64149","mean_motion":15.34410018,"eccentricity":0.0001549,"inclination_deg":53.1562,"raan_deg":105.8957,"arg_perigee_deg":76.9217,"mean_anomaly_deg":283.1958,"bstar":0.00046445,"rev_number":6414,"period_min":93.847145359292,"perigee_km":461.61382322092,"apogee_km":463.7331063029,"semimajor_km":6840.8104647619,"source":"CELESTRAK","updated_at":"2026-09-21T09:00:35.496073Z"}}